Location: Karlsruhe
(49.0131°N, 8.3874°E)
Time: 08:14:29
(UTC+02:00)

ISS - Pass Details

Date: 17 May 2021
Orbit: 419 x 422 km, 51.6° (Epoch: 24 June)

Event Time Altitude Azimuth Distance (km) Brightness Sun altitude
Rises 00:30:25 0° 272° (W) 2,419 0.3 -20.7°
Reaches altitude 10° 00:32:33 10° 278° (W) 1,556 -0.6 -20.8°
Maximum altitude 00:36:00 54° 356° (N) 546 -2.9 -20.9°
Drops below altitude 10° 00:39:29 10° 75° (ENE) 1,570 -0.8 -21.0°
Sets 00:41:39 0° 80° (E) 2,445 0.1 -21.1°
